User: anonymous   Login
Location: Unspecified
(0.0000°N, 0.0000°E)
Time: 21:51:02
(UTC+00:00)
Language:

STARLINK-3344 - Orbit

View from above orbital plane
View from above orbital plane
View from above satellite
View from above satellite

Ground track
Ground track

The orbit is defined by the following mean orbital elements,

1 51110U          26145.47128174 +.00000000 +00000-0 -27611-3 0 00004
2 51110  53.2128 304.4111 0001342  89.0127 271.1019 15.08855285    00
Epoch (UTC): 25 May 2026 11:18:38
Eccentricity: 0.0001342
inclination: 53.2128°
perigee height: 539 km
apogee height: 541 km
right ascension of ascending node: 304.4111°
argument of perigee: 89.0127°
revolutions per day: 15.08855285
mean anomaly at epoch: 271.1019°

The dashed part of the orbit path shows where the satellite is in the earth's shadow,  

DLR